GPS BIIF-10

Last updated on Tue Sep 16 2025 00:02:34 GMT+0000 (Coordinated Universal Time)

1 40730U 15033A 25258.00555420 .00000018 00000+0 00000+0 0 9996 2 40730 54.2042 278.4220 0105779 25.3471 335.2114 2.00570063 74473
UTC large
Height (km)
Speed (km/s)
/
Latitude / Longitude
Inclination (degrees)
Orbital Period (minutes)
Azimuth
Elevation
Range (km)
Doppler Factor

Next 0 passes for location: London (51.5072 / 0.1276)

Sorry there are no passes over London.